Weather History for Carbondale, IL

Change the Weather History Date:

Friday, September 6, 2013

  Actual Average Record
Temperature  
Mean Temperature 74 °F -  
Max Temperature 87 °F 84 °F 108 °F (1925)
Min Temperature 60 °F 58 °F 33 °F (1996)
Cooling Degree Days 8    
Growing Degree Days 24 (Base 50)    
Moisture  
Dew Point 63 °F    
Average Humidity 85    
Maximum Humidity 100    
Minimum Humidity 49    
Precipitation  
Precipitation 0.00 in - - ()
Sea Level Pressure  
Sea Level Pressure 30.14 in    
Wind  
Wind Speed 1 mph (SSE)    
Max Wind Speed 7 mph    
Max Gust Speed -    
Visibility 5 miles    
Events Fog    
Averages and records for this station are not official NWS values.
T = Trace of Precipitation, MM = Missing Value Source: NWS Daily Summary

Daily Weather History Graph

Daily Weather History Graph

Search for Another Location

Airport:

Trip Planner

Search our weather history database for the weather conditions in past years. The results will help you decide how hot, cold, wet, or windy it might be!

Date:

Astronomy

Sep. 06, 2013 Rise Set
Actual Time 6:31 AM CDT 7:18 PM CDT
Civil Twilight 6:04 AM CDT 7:44 PM CDT
Nautical Twilight 5:33 AM CDT 8:16 PM CDT
Astronomical Twilight 5:00 AM CDT 8:48 PM CDT
Moon 7:41 AM CDT (9/6) 7:45 PM CDT (9/6)
Length of Visible Light 13h 40m
Length of Day
12h 46m
New Moon, 2% of the Moon is Illuminated
Sep 6
New Moon
Sep 12
First Quarter
Sep 19
Full
Sep 26
Last Quarter
Oct 4
New

Hourly Weather History & Observations

Time (CDT) Temp. Heat Index Dew Point Humidity Pressure Visibility Wind Dir Wind Speed Gust Speed Precip Events Conditions
12:52 AM 64.9 °F - 64.0 °F 97% 30.17 in 5.0 mi Calm Calm - N/A   Clear
1:52 AM 64.0 °F - 62.1 °F 93% 30.16 in 4.0 mi Calm Calm - N/A   Clear
2:52 AM 64.0 °F - 61.0 °F 90% 30.15 in 5.0 mi Calm Calm - N/A   Clear
3:33 AM 62.6 °F - 62.6 °F 100% 30.17 in 2.0 mi Calm Calm - N/A   Clear
3:52 AM 64.0 °F - 63.0 °F 96% 30.16 in 3.0 mi Calm Calm - N/A   Clear
4:02 AM 64.4 °F - 62.6 °F 94% 30.16 in 1.8 mi Calm Calm - N/A   Clear
4:27 AM 62.6 °F - 62.6 °F 100% 30.16 in 0.2 mi Calm Calm - N/A Fog Fog
4:38 AM 62.6 °F - 62.6 °F 100% 30.16 in 0.5 mi Calm Calm - N/A Fog Fog
4:52 AM 62.1 °F - 62.1 °F 100% 30.15 in 0.5 mi Calm Calm - N/A Fog Fog
5:11 AM 62.6 °F - 60.8 °F 94% 30.16 in 1.8 mi Calm Calm - N/A   Clear
5:25 AM 60.8 °F - 60.8 °F 100% 30.16 in 0.5 mi Calm Calm - N/A Fog Fog
5:32 AM 62.6 °F - 60.8 °F 94% 30.16 in 0.2 mi Calm Calm - N/A Fog Fog
5:38 AM 60.8 °F - 60.8 °F 100% 30.16 in 0.2 mi Calm Calm - N/A Fog Fog
5:45 AM 60.8 °F - 60.8 °F 100% 30.16 in 0.2 mi Calm Calm - N/A Fog Fog
5:52 AM 61.0 °F - 60.1 °F 97% 30.15 in 0.2 mi Calm Calm - N/A Fog Fog
6:04 AM 60.8 °F - 59.0 °F 94% 30.16 in 0.2 mi Calm Calm - N/A Fog Fog
6:52 AM 61.0 °F - 60.1 °F 97% 30.17 in 0.2 mi Calm Calm - N/A Fog Fog
7:28 AM 62.6 °F - 62.6 °F 100% 30.18 in 1.0 mi Calm Calm - N/A   Mist
7:30 AM 62.6 °F - 62.6 °F 100% 30.18 in 2.0 mi Calm Calm - N/A   Partly Cloudy
7:48 AM 64.4 °F - 64.4 °F 100% 30.18 in 3.0 mi Calm Calm - N/A   Partly Cloudy
7:52 AM 64.9 °F - 64.0 °F 97% 30.17 in 3.0 mi Calm Calm - N/A   Partly Cloudy
8:17 AM 66.2 °F - 64.4 °F 94% 30.18 in 5.0 mi Calm Calm - N/A   Partly Cloudy
8:52 AM 72.0 °F - 66.0 °F 81% 30.18 in 5.0 mi Calm Calm - N/A   Haze
9:52 AM 77.0 °F - 66.0 °F 69% 30.19 in 10.0 mi Calm Calm - N/A   Partly Cloudy
10:52 AM 79.0 °F - 64.9 °F 62% 30.18 in 10.0 mi ESE 6.9 mph - N/A   Partly Cloudy
11:52 AM 82.0 °F 83.8 °F 64.9 °F 56% 30.17 in 10.0 mi Variable 3.5 mph - N/A   Clear
12:52 PM 84.0 °F 86.3 °F 66.0 °F 55% 30.15 in 10.0 mi East 3.5 mph - N/A   Scattered Clouds
1:52 PM 84.9 °F 87.1 °F 66.0 °F 53% 30.12 in 10.0 mi Calm Calm - N/A   Scattered Clouds
2:52 PM 86.0 °F 87.6 °F 64.9 °F 49% 30.10 in 10.0 mi SE 4.6 mph - N/A   Scattered Clouds
3:52 PM 87.1 °F 89.2 °F 66.0 °F 49% 30.08 in 10.0 mi Calm Calm - N/A   Clear
4:52 PM 84.9 °F 86.6 °F 64.9 °F 51% 30.07 in 10.0 mi Variable 5.8 mph - N/A   Partly Cloudy
5:52 PM 84.0 °F 86.3 °F 66.0 °F 55% 30.06 in 10.0 mi SSW 5.8 mph - N/A   Clear
6:52 PM 79.0 °F - 64.9 °F 62% 30.06 in 10.0 mi SSW 3.5 mph - N/A   Clear
7:52 PM 72.0 °F - 66.0 °F 81% 30.06 in 10.0 mi Calm Calm - N/A   Clear
8:52 PM 68.0 °F - 64.0 °F 87% 30.07 in 8.0 mi SE 3.5 mph - N/A   Clear
9:52 PM 66.9 °F - 64.0 °F 90% 30.06 in 9.0 mi Calm Calm - N/A   Clear
10:52 PM 64.9 °F - 63.0 °F 93% 30.06 in 6.0 mi Calm Calm - N/A   Clear
11:52 PM 64.0 °F - 63.0 °F 96% 30.06 in 5.0 mi Calm Calm - N/A   Clear